GLD1121 SCBA-SCPQ

Flight info

Callsign GLD1121
Flight time N/A
Altitude 14000
Route OPUR3J OPURA V123 TEN V124 SASTI DCT KALOS DCT
Aircraft B350/M-SDFGIRY/S

Departure

Time 2026-05-06 21:16
Airport Balmaceda Airport (SCBA)

Arrival

Time N/A
Airport Mocopulli Airport (SCPQ)
Time Latitude Longitude Altitude Speed Heading
2026-05-06 21:12 -45.91356 -71.69251 1749 ft 0 kts 188°
2026-05-06 21:13 -45.91377 -71.69249 1706 ft 12 kts 163°
2026-05-06 21:13 -45.91470 -71.69102 1704 ft 26 kts 117°
2026-05-06 21:13 -45.91594 -71.68875 1698 ft 32 kts 104°
2026-05-06 21:13 -45.91634 -71.68540 1692 ft 36 kts 103°
2026-05-06 21:14 -45.91678 -71.68163 1686 ft 40 kts 99°
2026-05-06 21:14 -45.91732 -71.67770 1679 ft 42 kts 108°
2026-05-06 21:14 -45.91776 -71.67351 1672 ft 41 kts 101°
2026-05-06 21:14 -45.91842 -71.67290 1672 ft 9 kts 314°
2026-05-06 21:15 -45.91792 -71.67369 1677 ft 13 kts 291°
2026-05-06 21:15 -45.91780 -71.67430 1676 ft 1 kts 282°
2026-05-06 21:15 -45.91711 -71.67942 1690 ft 93 kts 256°
2026-05-06 21:15 -45.91568 -71.69133 1808 ft 139 kts 284°
2026-05-06 21:16 -45.91389 -71.70490 2522 ft 140 kts 280°
2026-05-06 21:16 -45.91026 -71.71882 3008 ft 159 kts 301°
2026-05-06 21:16 -45.90351 -71.73214 3644 ft 165 kts 307°
2026-05-06 21:16 -45.89604 -71.74441 4347 ft 164 kts 327°
2026-05-06 21:17 -45.88468 -71.74559 4983 ft 172 kts 10°
2026-05-06 21:17 -45.87292 -71.74163 5626 ft 175 kts 12°
2026-05-06 21:17 -45.86080 -71.73968 6256 ft 176 kts 360°
2026-05-06 21:17 -45.84850 -71.74044 6865 ft 177 kts 353°
2026-05-06 21:18 -45.83636 -71.74255 7568 ft 173 kts 350°
2026-05-06 21:18 -45.82477 -71.74567 8320 ft 167 kts 342°
2026-05-06 21:18 -45.81385 -71.75024 9148 ft 160 kts 340°
2026-05-06 21:18 -45.80316 -71.75442 9918 ft 159 kts 341°
2026-05-06 21:19 -45.79236 -71.75835 10577 ft 161 kts 341°
2026-05-06 21:19 -45.78151 -71.76239 11247 ft 162 kts 340°
2026-05-06 21:19 -45.77061 -71.76659 11917 ft 163 kts 339°
2026-05-06 21:19 -45.75961 -71.77077 12582 ft 164 kts 339°
2026-05-06 21:20 -45.74851 -71.77497 13244 ft 166 kts 339°
2026-05-06 21:20 -45.74091 -71.77786 13541 ft 177 kts 339°
2026-05-06 21:20 -45.72358 -71.78441 13809 ft 208 kts 341°
2026-05-06 21:20 -45.70883 -71.78992 13877 ft 229 kts 341°
2026-05-06 21:21 -45.69309 -71.79586 13914 ft 238 kts 341°
2026-05-06 21:21 -45.67686 -71.80205 13934 ft 245 kts 341°
2026-05-06 21:21 -45.66019 -71.80834 13946 ft 250 kts 341°
2026-05-06 21:21 -45.64325 -71.81472 13958 ft 254 kts 341°
2026-05-06 21:22 -45.62614 -71.82118 13961 ft 256 kts 341°
2026-05-06 21:22 -45.60883 -71.82770 13970 ft 258 kts 341°
2026-05-06 21:22 -45.59140 -71.83427 13976 ft 259 kts 342°
2026-05-06 21:22 -45.57415 -71.84075 13974 ft 260 kts 342°
2026-05-06 21:23 -45.55645 -71.84741 13977 ft 260 kts 341°
2026-05-06 21:23 -45.53888 -71.85401 13975 ft 261 kts 341°
2026-05-06 21:23 -45.52143 -71.86057 13982 ft 261 kts 341°
2026-05-06 21:23 -45.50378 -71.86718 13981 ft 262 kts 341°
2026-05-06 21:24 -45.48619 -71.87378 13980 ft 262 kts 342°
2026-05-06 21:24 -45.46852 -71.88038 13973 ft 262 kts 341°
2026-05-06 21:24 -45.45094 -71.88698 13975 ft 261 kts 341°
2026-05-06 21:24 -45.43364 -71.89346 13993 ft 261 kts 341°
2026-05-06 21:25 -45.41582 -71.90013 13999 ft 262 kts 341°
2026-05-06 21:25 -45.39816 -71.90670 14004 ft 263 kts 341°
2026-05-06 21:25 -45.38114 -71.91310 13992 ft 263 kts 341°
2026-05-06 21:25 -45.36310 -71.91981 13988 ft 263 kts 341°
2026-05-06 21:26 -45.34523 -71.92646 13983 ft 263 kts 341°
2026-05-06 21:26 -45.32772 -71.93300 13987 ft 263 kts 341°
2026-05-06 21:26 -45.30997 -71.93963 13989 ft 264 kts 342°
2026-05-06 21:26 -45.29222 -71.94620 13987 ft 263 kts 341°
2026-05-06 21:27 -45.27451 -71.95287 14010 ft 264 kts 341°
2026-05-06 21:27 -45.25670 -71.95940 14002 ft 266 kts 342°
2026-05-06 21:27 -45.23886 -71.96602 13974 ft 265 kts 341°
2026-05-06 21:27 -45.22108 -71.97271 13975 ft 264 kts 341°
2026-05-06 21:28 -45.20328 -71.97922 13991 ft 263 kts 341°
2026-05-06 21:28 -45.18558 -71.98584 14001 ft 264 kts 341°
2026-05-06 21:28 -45.16785 -71.99242 13997 ft 264 kts 341°
2026-05-06 21:28 -45.15004 -71.99896 13996 ft 264 kts 341°
2026-05-06 21:29 -45.13224 -72.00557 13987 ft 264 kts 341°
2026-05-06 21:29 -45.11445 -72.01218 14003 ft 265 kts 341°
2026-05-06 21:29 -45.10242 -72.01661 14006 ft 266 kts 341°
2026-05-06 21:29 -45.07870 -72.02535 14000 ft 267 kts 341°
2026-05-06 21:30 -45.06654 -72.02988 14004 ft 267 kts 341°
2026-05-06 21:30 -45.04878 -72.03637 13979 ft 267 kts 341°
2026-05-06 21:30 -45.03087 -72.04299 14005 ft 266 kts 341°
2026-05-06 21:30 -45.01304 -72.04958 13964 ft 265 kts 341°
2026-05-06 21:31 -44.99525 -72.05612 13985 ft 263 kts 341°
2026-05-06 21:31 -44.97752 -72.06267 14008 ft 264 kts 341°
2026-05-06 21:31 -44.95974 -72.06920 13985 ft 265 kts 341°
2026-05-06 21:31 -44.94188 -72.07572 13996 ft 264 kts 341°
2026-05-06 21:32 -44.92418 -72.08226 13993 ft 264 kts 341°
2026-05-06 21:32 -44.88854 -72.09530 14017 ft 264 kts 341°
2026-05-06 21:32 -44.87073 -72.10185 13996 ft 265 kts 341°
2026-05-06 21:33 -44.85308 -72.10834 14015 ft 266 kts 341°
2026-05-06 21:33 -44.83496 -72.11492 14013 ft 267 kts 341°
2026-05-06 21:33 -44.81696 -72.12153 13999 ft 267 kts 341°
2026-05-06 21:33 -44.79896 -72.12811 13997 ft 266 kts 341°
2026-05-06 21:34 -44.78100 -72.13467 14000 ft 267 kts 341°
2026-05-06 21:34 -44.76313 -72.14123 13989 ft 265 kts 341°
2026-05-06 21:34 -44.74527 -72.14772 14013 ft 265 kts 341°
2026-05-06 21:34 -44.72741 -72.15422 13998 ft 265 kts 341°
2026-05-06 21:35 -44.70938 -72.16081 14008 ft 265 kts 341°
2026-05-06 21:35 -44.69177 -72.16723 14019 ft 265 kts 341°
2026-05-06 21:35 -44.67360 -72.17381 13997 ft 266 kts 341°
2026-05-06 21:35 -44.65568 -72.18037 14010 ft 266 kts 341°
2026-05-06 21:36 -44.63804 -72.18677 14018 ft 267 kts 341°
2026-05-06 21:36 -44.61976 -72.19339 14002 ft 266 kts 341°
2026-05-06 21:36 -44.60210 -72.19982 13991 ft 265 kts 341°
2026-05-06 21:36 -44.58441 -72.20625 14012 ft 263 kts 341°
2026-05-06 21:37 -44.56668 -72.21263 13999 ft 261 kts 341°
2026-05-06 21:37 -44.54924 -72.21899 14020 ft 258 kts 341°
2026-05-06 21:37 -44.53186 -72.22532 14038 ft 259 kts 341°
2026-05-06 21:37 -44.51414 -72.23168 14014 ft 259 kts 341°
2026-05-06 21:38 -44.49696 -72.23788 14023 ft 259 kts 341°
2026-05-06 21:38 -44.47952 -72.24423 14017 ft 259 kts 341°
2026-05-06 21:38 -44.46178 -72.25062 14032 ft 260 kts 341°
2026-05-06 21:38 -44.44441 -72.25687 14022 ft 262 kts 341°
2026-05-06 21:39 -44.42677 -72.26323 14016 ft 261 kts 341°
2026-05-06 21:39 -44.40917 -72.26960 14022 ft 262 kts 341°
2026-05-06 21:39 -44.39152 -72.27596 14013 ft 262 kts 341°
2026-05-06 21:39 -44.37384 -72.28230 14017 ft 262 kts 341°
2026-05-06 21:40 -44.35315 -72.28979 14011 ft 261 kts 341°
2026-05-06 21:40 -44.33566 -72.29606 14030 ft 261 kts 341°
2026-05-06 21:40 -44.31791 -72.30243 14020 ft 262 kts 341°
2026-05-06 21:40 -44.30026 -72.30879 14022 ft 263 kts 341°
2026-05-06 21:41 -44.28251 -72.31515 14023 ft 263 kts 341°
2026-05-06 21:41 -44.26480 -72.32149 14013 ft 263 kts 341°
2026-05-06 21:41 -44.24704 -72.32786 14011 ft 263 kts 341°
2026-05-06 21:41 -44.22937 -72.33423 14015 ft 262 kts 341°
2026-05-06 21:42 -44.21166 -72.34053 14029 ft 263 kts 341°
2026-05-06 21:42 -44.19398 -72.34686 14018 ft 263 kts 341°
2026-05-06 21:42 -44.17629 -72.35321 14022 ft 262 kts 341°
2026-05-06 21:42 -44.15858 -72.35953 14020 ft 262 kts 341°
2026-05-06 21:43 -44.14091 -72.36583 14023 ft 262 kts 341°
2026-05-06 21:43 -44.12325 -72.37216 14023 ft 262 kts 341°
2026-05-06 21:43 -44.10558 -72.37844 14012 ft 262 kts 341°
2026-05-06 21:43 -44.08789 -72.38474 14015 ft 262 kts 341°
2026-05-06 21:44 -44.07025 -72.39103 14022 ft 262 kts 341°
2026-05-06 21:44 -44.05265 -72.39733 14022 ft 261 kts 341°
2026-05-06 21:44 -44.03502 -72.40362 14035 ft 262 kts 341°
2026-05-06 21:44 -44.01728 -72.40990 14032 ft 264 kts 341°
2026-05-06 21:45 -43.99950 -72.41621 14022 ft 264 kts 341°
2026-05-06 21:45 -43.98171 -72.42256 14021 ft 264 kts 341°
2026-05-06 21:45 -43.96394 -72.42886 14020 ft 263 kts 341°
2026-05-06 21:45 -43.94617 -72.43518 14024 ft 263 kts 341°
2026-05-06 21:46 -43.92846 -72.44146 14026 ft 263 kts 341°
2026-05-06 21:46 -43.91072 -72.44776 14028 ft 263 kts 341°
2026-05-06 21:46 -43.89299 -72.45403 14031 ft 263 kts 341°
2026-05-06 21:46 -43.87522 -72.46034 14028 ft 264 kts 341°
2026-05-06 21:47 -43.85743 -72.46662 14031 ft 264 kts 341°
2026-05-06 21:47 -43.83989 -72.47281 14031 ft 264 kts 341°
2026-05-06 21:47 -43.82174 -72.47926 14030 ft 265 kts 341°
2026-05-06 21:47 -43.80392 -72.48555 14034 ft 265 kts 341°
2026-05-06 21:48 -43.79206 -72.48971 14017 ft 265 kts 341°
2026-05-06 21:48 -43.76846 -72.49807 14040 ft 264 kts 341°
2026-05-06 21:48 -43.75066 -72.50434 14041 ft 264 kts 341°
2026-05-06 21:48 -43.73280 -72.51063 14043 ft 265 kts 341°
2026-05-06 21:49 -43.72070 -72.51489 14036 ft 265 kts 341°
2026-05-06 21:49 -43.70277 -72.52119 14043 ft 266 kts 341°
2026-05-06 21:49 -43.68519 -72.52738 14030 ft 266 kts 341°
2026-05-06 21:49 -43.66697 -72.53379 14035 ft 265 kts 341°
2026-05-06 21:50 -43.64914 -72.54007 14029 ft 265 kts 341°
2026-05-06 21:50 -43.62551 -72.54836 14046 ft 265 kts 341°
2026-05-06 21:50 -43.61340 -72.55260 14041 ft 265 kts 341°
2026-05-06 21:50 -43.59554 -72.55887 14037 ft 265 kts 341°
2026-05-06 21:51 -43.57765 -72.56515 14055 ft 265 kts 341°
2026-05-06 21:51 -43.55975 -72.57141 14050 ft 265 kts 341°
2026-05-06 21:51 -43.54184 -72.57769 14047 ft 266 kts 341°
2026-05-06 21:51 -43.52419 -72.58387 14042 ft 265 kts 341°
2026-05-06 21:52 -43.50602 -72.59021 14057 ft 265 kts 341°
2026-05-06 21:52 -43.48811 -72.59648 14059 ft 266 kts 341°
2026-05-06 21:52 -43.47039 -72.60264 14039 ft 266 kts 342°
2026-05-06 21:52 -43.45250 -72.60887 14050 ft 265 kts 341°
2026-05-06 21:53 -43.43467 -72.61517 14065 ft 266 kts 341°
2026-05-06 21:53 -43.41672 -72.62136 14035 ft 266 kts 341°
2026-05-06 21:53 -43.39892 -72.62757 14057 ft 265 kts 341°
2026-05-06 21:53 -43.38093 -72.63386 14043 ft 265 kts 341°
2026-05-06 21:54 -43.36300 -72.64007 14054 ft 265 kts 341°
2026-05-06 21:54 -43.34513 -72.64632 14071 ft 266 kts 341°
2026-05-06 21:54 -43.32716 -72.65252 14039 ft 266 kts 341°
2026-05-06 21:54 -43.30917 -72.65880 14045 ft 265 kts 341°
2026-05-06 21:55 -43.29131 -72.66503 14063 ft 266 kts 341°
2026-05-06 21:55 -43.27339 -72.67119 14060 ft 265 kts 341°
2026-05-06 21:55 -43.25544 -72.67743 14058 ft 267 kts 341°
2026-05-06 21:55 -43.23749 -72.68364 14042 ft 266 kts 341°
2026-05-06 21:56 -43.22067 -72.68944 14050 ft 265 kts 342°
2026-05-06 21:56 -43.20254 -72.69573 14032 ft 262 kts 341°
2026-05-06 21:56 -43.18490 -72.70183 14055 ft 260 kts 341°
2026-05-06 21:56 -43.16736 -72.70790 14071 ft 261 kts 341°
2026-05-06 21:57 -43.14968 -72.71399 14065 ft 263 kts 341°
2026-05-06 21:57 -43.13188 -72.72010 14064 ft 264 kts 341°
2026-05-06 21:57 -43.11403 -72.72627 14069 ft 265 kts 341°
2026-05-06 21:57 -43.09615 -72.73244 14047 ft 265 kts 341°
2026-05-06 21:58 -43.07830 -72.73855 14064 ft 264 kts 341°
2026-05-06 21:58 -43.06050 -72.74470 14063 ft 264 kts 341°
2026-05-06 21:58 -43.04254 -72.75088 14061 ft 265 kts 341°
2026-05-06 21:58 -43.02470 -72.75700 14067 ft 265 kts 341°
2026-05-06 21:59 -43.00681 -72.76315 14065 ft 265 kts 341°
2026-05-06 21:59 -42.98893 -72.76928 14061 ft 265 kts 341°
2026-05-06 21:59 -42.97102 -72.77543 14065 ft 265 kts 341°
2026-05-06 21:59 -42.95315 -72.78155 14066 ft 265 kts 341°
2026-05-06 22:00 -42.93523 -72.78770 14058 ft 265 kts 341°
2026-05-06 22:00 -42.91739 -72.79380 14061 ft 265 kts 341°
2026-05-06 22:00 -42.89948 -72.79994 14065 ft 265 kts 341°
2026-05-06 22:00 -42.88182 -72.80597 14065 ft 266 kts 341°
2026-05-06 22:01 -42.86374 -72.81215 14069 ft 266 kts 341°
2026-05-06 22:01 -42.84568 -72.81832 14067 ft 266 kts 341°
2026-05-06 22:01 -42.82795 -72.82437 14060 ft 266 kts 341°
2026-05-06 22:01 -42.81010 -72.83161 14069 ft 263 kts 331°
2026-05-06 22:02 -42.79528 -72.84493 14070 ft 256 kts 315°
2026-05-06 22:02 -42.78245 -72.86154 14064 ft 254 kts 308°
2026-05-06 22:02 -42.77063 -72.87930 14065 ft 253 kts 306°
2026-05-06 22:02 -42.75942 -72.89767 14070 ft 251 kts 301°
2026-05-06 22:03 -42.74991 -72.91744 14073 ft 250 kts 298°
2026-05-06 22:03 -42.74005 -72.93692 14072 ft 251 kts 301°
2026-05-06 22:03 -42.73007 -72.95637 14076 ft 250 kts 299°
2026-05-06 22:03 -42.72029 -72.97594 14077 ft 250 kts 300°
2026-05-06 22:04 -42.71039 -72.99540 14071 ft 250 kts 300°
2026-05-06 22:04 -42.70049 -73.01490 14080 ft 250 kts 300°
2026-05-06 22:04 -42.69064 -73.03437 14078 ft 250 kts 300°
2026-05-06 22:04 -42.68076 -73.05384 14078 ft 250 kts 300°
2026-05-06 22:05 -42.67106 -73.07283 14078 ft 240 kts 300°
2026-05-06 22:05 -42.66180 -73.09123 14081 ft 233 kts 299°
2026-05-06 22:05 -42.65268 -73.10917 14079 ft 228 kts 299°
2026-05-06 22:05 -42.64373 -73.12674 14079 ft 225 kts 299°
2026-05-06 22:06 -42.63489 -73.14412 14083 ft 222 kts 299°
2026-05-06 22:06 -42.62613 -73.16132 14081 ft 221 kts 299°
2026-05-06 22:06 -42.61741 -73.17840 14085 ft 220 kts 299°
2026-05-06 22:06 -42.60867 -73.19556 14020 ft 222 kts 299°
2026-05-06 22:07 -42.59940 -73.21225 14000 ft 224 kts 307°
2026-05-06 22:07 -42.58752 -73.22709 13727 ft 236 kts 316°
2026-05-06 22:07 -42.57453 -73.24044 13142 ft 234 kts 319°
2026-05-06 22:07 -42.56092 -73.25268 12554 ft 236 kts 325°
2026-05-06 22:08 -42.54646 -73.26313 11981 ft 235 kts 326°
2026-05-06 22:08 -42.53236 -73.27405 11430 ft 232 kts 324°
2026-05-06 22:08 -42.51838 -73.28497 10882 ft 232 kts 325°
2026-05-06 22:08 -42.50433 -73.29562 10353 ft 231 kts 325°
2026-05-06 22:09 -42.49042 -73.30628 9826 ft 229 kts 325°
2026-05-06 22:09 -42.47663 -73.31691 9271 ft 227 kts 325°
2026-05-06 22:09 -42.46306 -73.32729 8722 ft 226 kts 326°
2026-05-06 22:09 -42.44912 -73.33802 8482 ft 227 kts 326°
2026-05-06 22:10 -42.43556 -73.34831 8212 ft 226 kts 326°
2026-05-06 22:10 -42.42187 -73.35877 7925 ft 226 kts 326°
2026-05-06 22:10 -42.40822 -73.36927 7704 ft 226 kts 326°
2026-05-06 22:10 -42.39438 -73.37986 7345 ft 239 kts 326°
2026-05-06 22:11 -42.37923 -73.39139 6912 ft 260 kts 328°
2026-05-06 22:11 -42.36330 -73.40340 6801 ft 263 kts 328°
2026-05-06 22:11 -42.34738 -73.41564 6765 ft 263 kts 327°
2026-05-06 22:11 -42.33145 -73.42781 6721 ft 263 kts 327°
2026-05-06 22:12 -42.31556 -73.43991 6711 ft 262 kts 327°
2026-05-06 22:12 -42.29969 -73.45204 6695 ft 262 kts 328°
2026-05-06 22:12 -42.28381 -73.46411 6656 ft 262 kts 328°
2026-05-06 22:12 -42.26794 -73.47621 6599 ft 262 kts 328°
2026-05-06 22:13 -42.25209 -73.48825 6532 ft 262 kts 328°
2026-05-06 22:13 -42.23617 -73.50032 6493 ft 262 kts 328°
2026-05-06 22:13 -42.22027 -73.51242 6454 ft 262 kts 328°
2026-05-06 22:13 -42.20439 -73.52446 6434 ft 262 kts 328°
2026-05-06 22:14 -42.18856 -73.53640 6109 ft 260 kts 328°
2026-05-06 22:14 -42.17366 -73.54981 5726 ft 253 kts 313°
2026-05-06 22:14 -42.16434 -73.56924 5082 ft 245 kts 291°
2026-05-06 22:14 -42.15846 -73.59053 4452 ft 241 kts 283°
2026-05-06 22:15 -42.15416 -73.61225 3826 ft 239 kts 279°
2026-05-06 22:15 -42.15191 -73.63409 3235 ft 233 kts 269°
2026-05-06 22:15 -42.15128 -73.65545 2883 ft 221 kts 270°
2026-05-06 22:15 -42.15014 -73.67471 2743 ft 192 kts 261°
2026-05-06 22:16 -42.15590 -73.68835 2683 ft 160 kts 207°
2026-05-06 22:16 -42.16576 -73.69325 2625 ft 145 kts 194°
2026-05-06 22:16 -42.17508 -73.69632 2582 ft 130 kts 192°
2026-05-06 22:16 -42.18355 -73.69848 2489 ft 120 kts 189°
2026-05-06 22:17 -42.19185 -73.69951 2285 ft 117 kts 185°
2026-05-06 22:17 -42.19999 -73.70014 2174 ft 117 kts 185°
2026-05-06 22:17 -42.20764 -73.70098 2131 ft 102 kts 186°
2026-05-06 22:17 -42.21429 -73.70184 2106 ft 92 kts 186°
2026-05-06 22:18 -42.22129 -73.70258 2087 ft 109 kts 184°
2026-05-06 22:18 -42.22896 -73.70340 2070 ft 114 kts 185°
2026-05-06 22:18 -42.23695 -73.70429 2056 ft 116 kts 185°
2026-05-06 22:18 -42.24499 -73.70519 2053 ft 116 kts 185°
2026-05-06 22:19 -42.25305 -73.70603 2061 ft 117 kts 185°
2026-05-06 22:19 -42.26122 -73.70695 2078 ft 119 kts 185°
2026-05-06 22:19 -42.26952 -73.70786 2066 ft 120 kts 185°
2026-05-06 22:19 -42.27784 -73.70876 2070 ft 120 kts 185°
2026-05-06 22:20 -42.28620 -73.70970 2038 ft 121 kts 185°
2026-05-06 22:20 -42.29489 -73.71068 1878 ft 128 kts 185°
2026-05-06 22:20 -42.30386 -73.71167 1691 ft 130 kts 185°
2026-05-06 22:20 -42.31294 -73.71266 1504 ft 132 kts 186°
2026-05-06 22:21 -42.32216 -73.71370 1318 ft 134 kts 185°
2026-05-06 22:21 -42.32831 -73.71437 1166 ft 134 kts 185°